map of IBZ home
IBZ - Airport
Location
City:  Eivissa, Eivissa, Balearic Islands, Spain
Near (Alt.):Ibiza
ICAO:LEIB
IATA:IBZ

Details
Type:Airport (Aerodrome, Airfield)
Use:Public/Civil
Latitude:3852'22"N (38.872858)
Longitude:122'23"E (1.373117)
Datum:WGS 1984
Elevation:20 ft (6 m)
Variation:0.72E (WMM2015 magnetic declination)
0.11 annual change
Runways:1
Longest:9186 × 148 ft (2800 × 45 m), paved

Time
Time Zone:UTC+1 (DST+2)
Local Time:

Weather
METAR:LEIB 221230Z 19007KT 160V240 CAVOK 28/18 Q1017 NOSIG
TAF:LEIB 220800Z 2209/2309 VRB04KT 9999 FEW015 TX29/2212Z TN20/2305Z
BECMG 2209/2210 11005KT

Related Locations
Nearby:
Farthest:GIS: 12259 mi / 19728 km
Gisborne, GIS, NZ

Find:

   beyond  
but within

Other Information
Maps:
NOTAMs:
Links:
Sources:

  
  • flag of Spain
  • flag of Balearic Islands
  

Airport Diagram

Airport diagram for IBZ

Larger airport diagram (OBSOLETE) from NGA

Sectional Chart

Flight Planning
at skyvector.com

Satellite Image

Google Maps Satellite view

 

Copyright © 2004-2018 Karl L. Swartz. All rights reserved.
The Great Circle Mapper name and logo are trademarks of the Great Circle Mapper.
All other trademarks mentioned herein belong to their respective owners.
Please see credits for attibutions and further copyright information.

  Follow gcmap on Facebook Follow gcmap on Twitter Follow gcmap on Google+ GCmap on LinkedIn

hCard Microformat

Geo Microformat